Change the Weather History Date:

Wednesday, April 9, 2014

  Actual Average Record
Temperature  
Mean Temperature 73 °F 70 °F  
Max Temperature 92 °F 82 °F 102 °F (1963)
Min Temperature 53 °F 58 °F 33 °F (1973)
Degree Days  
Heating Degree Days 0 1  
Month to date heating degree days 0 13  
Since 1 July heating degree days 1541 1363  
Cooling Degree Days 8 6  
Month to date cooling degree days 72 49  
Year to date cooling degree days 201 155  
Growing Degree Days 22 (Base 50)    
Moisture  
Dew Point 28 °F    
Average Humidity 23    
Maximum Humidity 36    
Minimum Humidity 10    
Precipitation  
Precipitation 0.00 in 0.05 in 1.77 in (1910)
Month to date precipitation 0.00 0.38  
Year to date precipitation 0.54 3.12  
Sea Level Pressure  
Sea Level Pressure 30.08 in    
Wind  
Wind Speed 11 mph (ESE)    
Max Wind Speed 22 mph    
Max Gust Speed 27 mph    
Visibility 10 miles    
Events      
T = Trace of Precipitation, MM = Missing Value Source: NWS Daily Summary

Daily Weather History Graph

Daily Weather History Graph

Search for Another Location

Airport or City:

Trip Planner

Search our weather history database for the weather conditions in past years. The results will help you decide how hot, cold, wet, or windy it might be!

Date:

Astronomy

Apr. 09, 2014 Rise Set
Actual Time 7:24 AM CDT 8:06 PM CDT
Civil Twilight 6:59 AM CDT 8:31 PM CDT
Nautical Twilight 6:31 AM CDT 8:59 PM CDT
Astronomical Twilight 6:02 AM CDT 9:28 PM CDT
Moon 3:18 PM CDT (4/9) 3:50 AM CDT (4/9)
Length of Visible Light 13h 31m
Length of Day
12h 42m
Waxing Gibbous, 72% of the Moon is Illuminated
Apr 9
Waxing Gibbous
Apr 15
Full
Apr 22
Last Quarter
Apr 29
New
May 6
First Quarter

Hourly Weather History & Observations

Time (CDT) Temp. Dew Point Humidity Pressure Visibility Wind Dir Wind Speed Gust Speed Precip Events Conditions
12:53 AM 64.0 °F 28.0 °F 26% 30.15 in 10.0 mi Calm Calm - N/A   Clear
1:53 AM 57.0 °F 30.9 °F 37% 30.15 in 10.0 mi Calm Calm - N/A   Clear
2:53 AM 59.0 °F 26.1 °F 28% 30.14 in 10.0 mi ENE 6.9 mph - N/A   Clear
3:53 AM 57.9 °F 26.1 °F 30% 30.13 in 10.0 mi ENE 5.8 mph - N/A   Clear
4:53 AM 55.9 °F 26.1 °F 32% 30.13 in 10.0 mi ENE 5.8 mph - N/A   Clear
5:53 AM 55.0 °F 26.1 °F 33% 30.13 in 10.0 mi East 10.4 mph - N/A   Clear
6:53 AM 54.0 °F 27.0 °F 35% 30.14 in 10.0 mi East 8.1 mph - N/A   Clear
7:46 AM 53.1 °F 27.0 °F 37% 30.19 in 10.0 mi ENE 6.9 mph - N/A   Partly Cloudy
7:53 AM 54.0 °F 27.0 °F 35% 30.16 in 10.0 mi ENE 9.2 mph - N/A   Clear
8:53 AM 60.1 °F 28.9 °F 31% 30.17 in 10.0 mi East 5.8 mph - N/A   Clear
9:53 AM 68.0 °F 28.0 °F 22% 30.18 in 10.0 mi SE 11.5 mph - N/A   Clear
10:53 AM 75.0 °F 27.0 °F 17% 30.17 in 10.0 mi SE 13.8 mph - N/A   Clear
11:53 AM 80.1 °F 27.0 °F 14% 30.16 in 10.0 mi ESE 13.8 mph 23.0 mph N/A   Clear
12:53 PM 82.9 °F 28.0 °F 14% 30.13 in 10.0 mi SSE 15.0 mph 23.0 mph N/A   Clear
1:53 PM 86.0 °F 27.0 °F 12% 30.09 in 10.0 mi SE 15.0 mph 25.3 mph N/A   Clear
2:53 PM 89.1 °F 28.0 °F 11% 30.05 in 10.0 mi ESE 12.7 mph 25.3 mph N/A   Clear
3:53 PM 90.0 °F 28.0 °F 11% 30.00 in 10.0 mi SSE 16.1 mph 24.2 mph N/A   Clear
4:53 PM 91.9 °F 27.0 °F 10% 29.97 in 10.0 mi SE 15.0 mph 24.2 mph N/A   Clear
5:53 PM 91.0 °F 27.0 °F 10% 29.95 in 10.0 mi SE 16.1 mph 24.2 mph N/A   Clear
6:53 PM 90.0 °F 28.0 °F 11% 29.94 in 10.0 mi SE 17.3 mph 24.2 mph N/A   Clear
7:53 PM 87.1 °F 28.9 °F 12% 29.94 in 10.0 mi ESE 11.5 mph - N/A   Clear
8:53 PM 82.0 °F 30.0 °F 15% 29.96 in 10.0 mi ESE 9.2 mph - N/A   Clear
9:53 PM 80.1 °F 30.9 °F 17% 29.98 in 10.0 mi ESE 11.5 mph - N/A   Clear
10:53 PM 77.0 °F 33.1 °F 20% 29.99 in 10.0 mi SE 12.7 mph - N/A   Clear
11:53 PM 75.0 °F 34.0 °F 22% 29.99 in 10.0 mi SE 12.7 mph - N/A   Clear